Location: Casa Rossa
(45.2389°N, 12.2056°E)
Time: 04:19:49
(UTC+00:00)

Meteor 1-11 Rocket - Pass Details

Date: 14 July 2020
Orbit: 832 x 915 km, 81.2° (Epoch: 11 August)

Event Time Altitude Azimuth Distance (km) Brightness Sun altitude
Exits shadow 02:04:16 18° 217° (SW) 1,915 4.9 -13.1°
Maximum altitude 02:08:08 49° 285° (WNW) 1,066 4.1 -12.7°
Drops below altitude 10° 02:13:30 10° 1° (N) 2,453 6.9 -12.0°
Sets 02:16:00 0° 7° (N) 3,395 7.8 -11.7°
